TimeMDT,TemperatureF,Dew PointF,Humidity,Sea Level PressureIn,VisibilityMPH,Wind Direction,Wind SpeedMPH,Gust SpeedMPH,PrecipitationIn,Events,Conditions,WindDirDegrees,DateUTC
12:15 AM,55.4,51.8,88,30.00,10.0,WNW,9.2,-,N/A,,Clear,300,2013-09-14 06:15:00
12:35 AM,55.4,51.8,88,30.01,10.0,NW,8.1,-,N/A,,Clear,310,2013-09-14 06:35:00
12:55 AM,55.4,51.8,88,30.01,10.0,WNW,8.1,-,N/A,,Scattered Clouds,300,2013-09-14 06:55:00
1:15 AM,55.4,51.8,88,30.01,10.0,WNW,6.9,-,N/A,,Mostly Cloudy,300,2013-09-14 07:15:00
1:35 AM,55.4,51.8,88,30.01,10.0,NW,4.6,-,N/A,,Overcast,320,2013-09-14 07:35:00
1:55 AM,55.4,51.8,88,30.01,10.0,WNW,6.9,-,N/A,,Overcast,290,2013-09-14 07:55:00
2:15 AM,55.4,51.8,88,30.01,10.0,NW,5.8,-,N/A,,Overcast,310,2013-09-14 08:15:00
2:35 AM,55.4,51.8,88,30.01,10.0,NW,5.8,-,N/A,,Overcast,320,2013-09-14 08:35:00
2:55 AM,55.4,51.8,88,30.01,10.0,NNW,8.1,-,N/A,,Overcast,330,2013-09-14 08:55:00
3:15 AM,55.4,51.8,88,30.01,10.0,NW,8.1,-,N/A,,Overcast,310,2013-09-14 09:15:00
3:35 AM,55.4,51.8,88,30.01,10.0,NW,8.1,-,N/A,,Overcast,310,2013-09-14 09:35:00
3:55 AM,55.4,51.8,88,30.01,10.0,NNW,8.1,-,N/A,,Mostly Cloudy,340,2013-09-14 09:55:00
4:15 AM,53.6,50.0,88,30.01,10.0,NNW,11.5,-,N/A,,Scattered Clouds,330,2013-09-14 10:15:00
4:35 AM,53.6,50.0,88,30.01,10.0,NW,9.2,-,N/A,,Clear,320,2013-09-14 10:35:00
4:55 AM,55.4,50.0,82,30.01,10.0,NW,8.1,-,N/A,,Clear,320,2013-09-14 10:55:00
5:15 AM,53.6,50.0,88,30.01,10.0,NNW,9.2,-,N/A,,Mostly Cloudy,330,2013-09-14 11:15:00
5:35 AM,53.6,50.0,88,30.01,10.0,NW,9.2,-,N/A,,Overcast,310,2013-09-14 11:35:00
5:55 AM,53.6,50.0,88,30.02,10.0,NNW,11.5,-,N/A,,Overcast,330,2013-09-14 11:55:00
6:15 AM,53.6,50.0,88,30.02,10.0,NW,9.2,-,N/A,,Overcast,310,2013-09-14 12:15:00
6:35 AM,53.6,50.0,88,30.02,10.0,NW,9.2,-,N/A,,Overcast,320,2013-09-14 12:35:00
6:50 AM,55.4,50.0,82,30.02,10.0,WNW,10.4,-,N/A,,Mostly Cloudy,300,2013-09-14 12:50:00
6:55 AM,53.6,50.0,88,30.02,10.0,NW,10.4,-,N/A,,Overcast,320,2013-09-14 12:55:00
7:50 AM,53.6,48.2,82,30.03,10.0,WNW,5.8,-,N/A,,Mostly Cloudy,300,2013-09-14 13:50:00
8:47 AM,55.4,50.0,82,30.05,10.0,NW,9.2,-,N/A,,Mostly Cloudy,320,2013-09-14 14:47:00
9:47 AM,60.8,51.8,72,30.04,10.0,NW,8.1,-,N/A,,Scattered Clouds,320,2013-09-14 15:47:00
10:47 AM,62.6,50.0,63,30.06,10.0,Calm,Calm,-,N/A,,Scattered Clouds,0,2013-09-14 16:47:00
11:50 AM,66.2,53.6,64,30.05,10.0,ESE,8.1,-,N/A,,Scattered Clouds,120,2013-09-14 17:50:00
12:50 PM,69.8,53.6,56,30.05,10.0,East,5.8,-,N/A,Rain,Light Rain,100,2013-09-14 18:50:00
1:22 PM,64.4,57.2,77,30.05,10.0,Calm,Calm,-,N/A,Rain-Thunderstorm,Light Thunderstorms and Rain,0,2013-09-14 19:22:00
1:50 PM,64.4,57.2,77,30.04,10.0,Calm,Calm,-,N/A,,Overcast,0,2013-09-14 19:50:00
2:02 PM,64.4,55.4,73,30.05,10.0,Calm,Calm,-,N/A,Rain-Thunderstorm,Light Thunderstorms and Rain,0,2013-09-14 20:02:00
2:47 PM,60.8,57.2,88,30.04,7.0,South,5.8,-,N/A,Rain-Thunderstorm,Light Thunderstorms and Rain,180,2013-09-14 20:47:00
3:50 PM,62.6,57.2,82,30.04,10.0,Calm,Calm,-,N/A,,Mostly Cloudy,0,2013-09-14 21:50:00
4:47 PM,62.6,57.2,82,30.04,10.0,Calm,Calm,-,N/A,,Scattered Clouds,0,2013-09-14 22:47:00
5:52 PM,66.2,55.4,68,30.04,10.0,Calm,Calm,-,N/A,,Mostly Cloudy,0,2013-09-14 23:52:00
6:47 PM,66.2,57.2,73,30.03,10.0,North,4.6,-,N/A,,Mostly Cloudy,360,2013-09-15 00:47:00
7:47 PM,62.6,59.0,88,30.04,10.0,Calm,Calm,-,N/A,,Overcast,0,2013-09-15 01:47:00
8:47 PM,62.6,57.2,82,30.05,10.0,Calm,Calm,-,N/A,,Overcast,0,2013-09-15 02:47:00
9:47 PM,60.8,57.2,88,30.06,10.0,Calm,Calm,-,N/A,,Overcast,0,2013-09-15 03:47:00
10:47 PM,60.8,57.2,88,30.06,10.0,Calm,Calm,-,N/A,,Overcast,0,2013-09-15 04:47:00
11:15 PM,60.8,55.4,82,30.07,10.0,NNW,3.5,-,N/A,,Overcast,340,2013-09-15 05:15:00
11:35 PM,59.0,55.4,88,30.07,10.0,Calm,Calm,-,N/A,,Overcast,0,2013-09-15 05:35:00
11:55 PM,59.0,55.4,88,30.07,10.0,NW,5.8,-,N/A,,Overcast,310,2013-09-15 05:55:00